FDX7765 KTPA-KMEM

Flight info

Callsign FDX7765
Flight time N/A
Altitude 32000
Route SZW WYATT VUZ MEM
Aircraft B722/M-DOV/C

Departure

Time 2026-05-04 04:14
Airport Tampa International Airport (KTPA)

Arrival

Time N/A
Airport Memphis International Airport (KMEM)
Time Latitude Longitude Altitude Speed Heading
2026-05-04 04:00 27.96723 -82.52472 36 ft 0 kts 181°
2026-05-04 04:05 27.96729 -82.52472 36 ft 2 kts 181°
2026-05-04 04:05 27.96746 -82.52472 36 ft 3 kts 181°
2026-05-04 04:05 27.96766 -82.52472 36 ft 3 kts 181°
2026-05-04 04:05 27.96787 -82.52471 36 ft 3 kts 181°
2026-05-04 04:06 27.96807 -82.52471 36 ft 3 kts 181°
2026-05-04 04:06 27.96828 -82.52470 36 ft 3 kts 181°
2026-05-04 04:06 27.96834 -82.52470 36 ft 0 kts 181°
2026-05-04 04:07 27.96830 -82.52471 36 ft 3 kts 190°
2026-05-04 04:08 27.96813 -82.52512 36 ft 6 kts 278°
2026-05-04 04:08 27.96815 -82.52533 36 ft 0 kts 278°
2026-05-04 04:08 27.96817 -82.52540 36 ft 5 kts 287°
2026-05-04 04:08 27.96840 -82.52660 36 ft 27 kts 275°
2026-05-04 04:09 27.96756 -82.52761 36 ft 15 kts 193°
2026-05-04 04:09 27.96686 -82.52779 36 ft 6 kts 185°
2026-05-04 04:09 27.96670 -82.52780 36 ft 0 kts 182°
2026-05-04 04:09 27.96587 -82.52782 36 ft 21 kts 177°
2026-05-04 04:10 27.96469 -82.52814 36 ft 14 kts 244°
2026-05-04 04:10 27.96473 -82.52883 36 ft 5 kts 295°
2026-05-04 04:10 27.96493 -82.52899 36 ft 4 kts 352°
2026-05-04 04:10 27.96517 -82.52897 36 ft 1 kts
2026-05-04 04:13 27.96546 -82.52895 36 ft 23 kts
2026-05-04 04:13 27.96958 -82.52882 36 ft 95 kts
2026-05-04 04:14 27.97833 -82.52857 36 ft 154 kts
2026-05-04 04:14 27.98983 -82.52841 490 ft 166 kts
2026-05-04 04:14 28.00172 -82.53134 1177 ft 190 kts 336°
2026-05-04 04:14 28.01176 -82.54197 1864 ft 207 kts 312°
2026-05-04 04:15 28.02137 -82.55491 2526 ft 223 kts 315°
2026-05-04 04:15 28.03269 -82.56700 3160 ft 226 kts 320°
2026-05-04 04:15 28.04493 -82.57822 3765 ft 231 kts 323°
2026-05-04 04:15 28.05812 -82.58920 4364 ft 242 kts 325°
2026-05-04 04:16 28.07213 -82.60016 4883 ft 244 kts 326°
2026-05-04 04:16 28.08557 -82.61027 5224 ft 220 kts 327°
2026-05-04 04:16 28.09800 -82.61943 5583 ft 221 kts 326°
2026-05-04 04:16 28.11203 -82.62963 5900 ft 261 kts 326°
2026-05-04 04:17 28.12716 -82.64043 5973 ft 253 kts 327°
2026-05-04 04:17 28.14233 -82.65114 6002 ft 265 kts 326°
2026-05-04 04:17 28.15815 -82.66226 6005 ft 268 kts 327°
2026-05-04 04:17 28.17345 -82.67294 6064 ft 249 kts 326°
2026-05-04 04:18 28.18711 -82.68241 6635 ft 218 kts 326°
2026-05-04 04:18 28.20042 -82.69169 7410 ft 230 kts 324°
2026-05-04 04:18 28.21365 -82.70092 8141 ft 217 kts 324°
2026-05-04 04:18 28.22674 -82.71006 8875 ft 230 kts 324°
2026-05-04 04:19 28.24057 -82.71976 9786 ft 237 kts 323°
2026-05-04 04:19 28.25491 -82.72982 10593 ft 253 kts 323°
2026-05-04 04:19 28.27047 -82.74077 11239 ft 275 kts 323°
2026-05-04 04:19 28.28734 -82.75264 11882 ft 298 kts 323°
2026-05-04 04:20 28.30554 -82.76544 12524 ft 320 kts 323°
2026-05-04 04:20 28.32505 -82.77913 13163 ft 342 kts 323°
2026-05-04 04:20 28.34566 -82.79356 13878 ft 354 kts 323°
2026-05-04 04:20 28.36672 -82.80824 14629 ft 359 kts 323°
2026-05-04 04:21 28.38804 -82.82304 15381 ft 362 kts 323°
2026-05-04 04:21 28.40958 -82.83790 16143 ft 365 kts 323°
2026-05-04 04:21 28.43126 -82.85272 16923 ft 365 kts 323°
2026-05-04 04:21 28.45302 -82.86743 17730 ft 365 kts 323°
2026-05-04 04:22 28.47478 -82.88195 18572 ft 365 kts 323°
2026-05-04 04:22 28.49682 -82.89649 19444 ft 370 kts 323°
2026-05-04 04:22 28.51911 -82.91108 20354 ft 372 kts 323°
2026-05-04 04:22 28.54154 -82.92564 21316 ft 372 kts 323°
2026-05-04 04:23 28.56392 -82.94002 22340 ft 369 kts 323°
2026-05-04 04:23 28.58607 -82.95464 23131 ft 372 kts 321°
2026-05-04 04:23 28.60816 -82.97031 23677 ft 380 kts 320°
2026-05-04 04:23 28.63051 -82.98670 24183 ft 388 kts 320°
2026-05-04 04:24 28.65332 -83.00359 24693 ft 396 kts 320°
2026-05-04 04:24 28.67654 -83.02074 25286 ft 402 kts 320°
2026-05-04 04:24 28.70005 -83.03799 25908 ft 406 kts 320°
2026-05-04 04:24 28.72385 -83.05533 26533 ft 409 kts 320°
2026-05-04 04:25 28.74786 -83.07272 27158 ft 412 kts 320°
2026-05-04 04:25 28.77207 -83.09015 27782 ft 414 kts 321°
2026-05-04 04:25 28.79639 -83.10758 28404 ft 416 kts 321°
2026-05-04 04:25 28.82085 -83.12505 29028 ft 416 kts 321°
2026-05-04 04:26 28.84534 -83.14248 29652 ft 417 kts 321°
2026-05-04 04:26 28.86988 -83.15991 30207 ft 418 kts 321°
2026-05-04 04:26 28.89461 -83.17749 30616 ft 423 kts 321°
2026-05-04 04:26 28.91965 -83.19529 30994 ft 428 kts 321°
2026-05-04 04:27 28.94487 -83.21320 31369 ft 429 kts 321°
2026-05-04 04:27 28.97015 -83.23112 31743 ft 430 kts 321°
2026-05-04 04:27 28.99552 -83.24910 32039 ft 432 kts 321°
2026-05-04 04:27 29.02113 -83.26728 32168 ft 438 kts 322°
2026-05-04 04:28 29.07359 -83.30460 32170 ft 454 kts 322°
2026-05-04 04:28 29.10018 -83.32348 32052 ft 434 kts 322°
2026-05-04 04:28 29.12530 -83.34110 32180 ft 424 kts 322°